Wind_Speed
13 12 11 10 9 8 7 5 4 3 3 4 6 8 9 11 13 14 16 18 19 20 21 23 24 25 26 27 28 29 30 30 31 31 30 29 28 27 26 24 22 20 18 13
13 12 11 10 9 8 7 6 5 4 3 4 5 7 9 10 12 14 15 17 18 19 20 22 23 25 26 26 27 28 29 30 30 30 30 30 29 27 26 25 24 22 19 15
13 12 11 11 10 9 8 7 6 5 5 4 5 7 9 10 11 13 14 16 17 19 20 21 22 24 25 26 26 27 28 29 30 30 29 30 30 29 28 26 25 23 20 18
14 13 12 11 10 10 9 8 7 6 6 6 6 7 9 10 11 12 14 15 17 18 19 20 21 23 24 25 25 26 27 28 29 29 29 29 29 29 29 28 26 24 21 19
14 13 12 11 10 10 9 8 8 7 7 7 8 8 9 10 12 13 14 15 16 17 18 20 21 22 23 24 25 25 26 26 27 27 28 28 28 28 28 28 27 25 22 19
14 13 12 11 10 10 9 9 8 8 8 9 9 10 10 11 12 13 14 15 16 17 18 19 20 21 22 23 24 24 25 25 25 26 26 26 27 27 27 27 26 26 24 21
14 13 12 11 10 10 11 10 10 10 10 10 11 11 12 12 13 14 15 16 17 17 18 19 20 21 22 22 23 23 24 24 24 24 25 25 25 26 26 26 25 24 24 22
14 13 12 12 12 12 12 12 12 12 12 13 13 13 13 14 15 15 16 17 17 18 19 20 20 21 21 22 22 22 23 23 23 23 23 23 23 24 24 24 23 23 22 21
15 14 14 13 13 13 14 14 14 14 14 14 15 15 16 16 17 17 17 18 18 19 20 20 21 21 21 22 22 22 22 22 22 22 22 22 22 22 22 22 22 21 20 20
15 15 15 15 15 15 15 16 16 16 16 16 17 17 18 18 18 19 19 19 19 20 21 21 22 22 22 22 22 22 22 22 22 22 22 21 21 21 21 21 20 20 19 18
17 16 16 17 17 17 18 18 18 18 19 19 19 20 20 20 20 20 21 21 21 22 22 23 23 23 23 23 23 22 22 22 22 22 21 21 21 20 20 20 19 18 18 17
19 19 19 19 19 19 20 20 20 21 21 21 21 22 22 22 22 22 22 23 23 24 24 24 24 24 24 23 23 23 23 22 22 22 21 21 21 20 19 19 18 18 17 16
22 22 22 21 22 22 22 22 22 22 23 23 23 23 24 24 24 24 25 25 26 26 26 26 26 26 25 25 25 24 24 24 24 23 22 22 21 20 20 19 18 18 17 16
24 24 24 24 24 24 24 24 24 25 25 25 25 26 26 27 27 27 27 28 28 28 28 28 28 28 28 27 27 26 26 26 26 25 24 23 23 22 21 20 19 18 18 17
26 26 26 26 27 27 27 27 27 27 27 27 28 28 29 29 30 30 30 30 30 30 30 30 31 31 30 30 29 29 28 28 28 27 26 26 25 24 23 22 21 20 19 18
29 29 29 29 29 29 29 29 29 29 30 30 30 30 31 32 32 32 32 33 33 33 33 33 33 33 33 33 32 32 31 30 30 29 28 28 28 27 26 25 24 23 22 21
31 31 31 31 31 31 32 32 32 33 33 33 33 33 34 34 34 35 35 35 35 36 35 35 35 35 35 34 34 33 32 32 32 31 31 31 30 30 29 29 28 27 25 24
34 34 34 33 33 34 34 35 35 35 35 35 35 35 36 36 37 37 37 37 38 37 37 37 37 36 36 35 35 34 34 34 34 33 33 33 33 33 32 32 31 30 29 28
36 36 36 36 36 36 36 36 37 37 37 37 37 38 38 39 39 39 38 39 39 39 39 38 38 38 37 37 37 37 37 37 37 37 37 36 36 36 35 35 35 34 33 32
38 38 38 38 38 38 38 39 39 39 39 39 40 40 41 41 40 40 40 40 40 40 40 40 40 40 40 40 40 40 40 40 40 40 40 40 40 40 39 39 39 38 38 37
40 40 40 40 40 40 41 41 41 42 42 42 43 43 43 42 42 42 42 42 42 42 41 41 42 42 42 42 42 43 43 43 44 44 44 44 44 44 44 43 43 42 42 41
41 41 42 42 42 43 43 43 44 44 44 45 45 44 44 44 44 44 43 43 43 43 43 44 44 44 44 45 45 46 46 47 47 48 48 48 48 48 48 47 47 47 46 46
43 44 44 44 45 45 45 46 46 46 46 46 46 46 45 45 45 44 44 44 45 45 46 46 47 47 48 48 49 50 50 50 51 51 51 51 51 51 51 51 51 51 51 50
44 45 45 45 46 46 46 46 46 46 46 46 46 45 45 45 45 45 46 46 46 47 48 49 49 50 51 51 52 52 52 53 53 53 53 53 53 54 54 54 54 54 54 54
43 44 44 44 44 44 45 45 45 45 45 45 45 45 45 45 45 46 46 47 48 49 50 50 51 52 52 53 53 54 54 54 55 55 55 55 55 55 55 55 55 56 56 56
42 42 42 43 43 43 44 44 44 43 44 44 44 44 44 44 45 46 47 48 49 50 51 52 52 53 54 54 55 55 56 56 57 57 57 56 56 56 55 55 56 57 57 57
43 43 43 43 43 43 43 43 43 43 43 43 43 44 45 45 46 47 48 49 50 50 51 52 53 53 54 55 56 57 57 57 57 57 57 56 56 56 55 55 55 56 57 58
Wind_Direction
218 218 216 214 213 213 215 219 231 256 296 326 342 350 354 357 359 0 2 4 6 7 8 9 10 11 12 13 14 15 16 17 17 18 18 18 17 17 18 18 18 17 15 15
217 214 214 215 216 217 220 225 236 253 280 310 330 341 347 352 355 357 359 1 3 4 4 6 7 9 10 11 12 13 15 16 16 17 19 19 19 20 19 19 19 21 22 22
215 214 215 218 220 223 228 232 241 253 270 295 317 329 338 345 349 352 355 358 360 1 2 2 4 5 7 9 10 12 13 14 16 17 18 19 20 21 21 20 20 22 25 26
212 215 220 221 224 228 233 237 244 254 269 288 306 318 327 335 340 345 348 351 354 356 358 359 360 1 3 5 7 9 10 12 14 16 17 18 19 21 21 22 21 23 25 27
212 217 222 224 227 232 238 243 249 259 270 284 297 307 317 325 332 337 341 344 346 349 351 353 355 357 359 1 3 4 7 9 11 13 16 17 18 19 20 21 23 24 26 27
215 220 224 226 230 236 242 248 254 263 272 281 292 301 309 316 322 328 333 336 339 342 344 347 350 351 353 356 359 1 3 5 8 10 12 14 16 18 19 20 22 24 27 28
219 224 229 231 235 240 247 254 258 265 273 280 287 295 301 307 313 319 324 328 331 334 337 340 343 345 347 350 353 356 358 0 2 5 8 10 12 14 16 18 20 21 24 26
226 230 235 237 242 246 253 257 262 268 274 279 285 290 296 301 306 312 317 321 325 328 331 334 336 338 341 343 346 349 352 355 357 360 2 5 7 10 12 14 16 18 20 22
234 239 243 244 247 250 255 260 264 269 275 280 284 289 294 298 302 307 311 315 319 322 325 328 330 332 334 336 338 341 344 347 350 353 356 359 1 3 6 8 11 13 16 17
240 243 247 249 251 254 259 262 267 271 275 279 283 287 292 296 299 302 306 309 313 316 319 321 323 325 327 329 331 334 336 339 341 345 348 351 355 357 360 2 4 6 8 11
245 247 250 253 256 259 262 265 268 272 275 278 282 286 289 293 296 300 303 306 308 311 313 315 317 319 321 323 325 326 328 330 333 335 338 341 344 348 351 354 357 358 359 2
249 252 255 257 260 262 265 268 271 274 276 279 282 285 287 291 294 297 299 302 304 306 308 310 312 313 316 317 319 320 321 322 324 326 328 330 333 336 340 343 346 348 349 350
252 254 257 260 262 264 267 270 272 275 277 279 282 284 287 289 292 294 296 298 300 302 304 305 306 308 310 311 312 312 313 314 316 317 318 319 321 324 326 329 332 334 336 337
254 256 258 260 263 265 268 270 273 275 277 279 281 284 286 288 290 291 293 295 297 299 300 301 302 303 305 305 306 306 307 307 308 309 310 311 311 313 314 316 318 320 322 323
255 257 259 261 263 265 268 270 272 274 276 278 280 283 285 286 288 290 292 293 295 296 297 298 298 300 301 301 302 302 302 302 302 303 303 303 304 304 304 305 306 308 309 310
256 258 260 262 264 266 268 270 272 274 276 278 280 282 284 286 288 289 291 292 293 294 295 296 296 297 298 298 299 299 299 299 298 298 298 297 297 297 297 297 297 297 298 299
257 259 260 262 264 266 268 270 272 274 276 278 280 282 284 286 288 289 290 291 292 293 294 294 295 295 295 296 296 296 296 296 295 294 294 293 292 292 291 290 290 289 289 289
256 258 260 263 265 267 268 270 272 274 276 278 280 282 284 286 288 289 291 291 292 292 293 293 293 293 293 294 294 294 294 293 293 292 291 290 289 288 287 285 284 283 282 282
257 258 261 263 265 267 269 271 273 274 276 277 279 282 284 286 287 288 289 290 291 292 292 292 293 293 293 293 293 293 293 292 291 291 290 289 287 286 284 282 280 278 277 276
257 259 261 263 265 267 269 271 273 274 276 277 280 282 284 285 286 287 288 289 289 290 291 291 291 292 292 292 292 292 291 291 290 289 288 288 287 285 283 280 278 276 274 272
257 260 262 264 266 268 269 271 273 275 277 279 281 283 284 285 286 287 288 288 289 289 290 291 291 291 292 292 292 292 291 291 289 288 287 285 284 283 281 279 277 274 272 270
258 260 262 264 266 268 270 272 274 276 278 280 281 283 284 285 286 287 288 288 289 289 290 291 292 292 292 292 292 292 291 290 289 288 286 285 283 281 279 277 275 272 270 268
258 260 262 264 266 268 270 272 273 275 277 279 280 282 283 284 285 286 287 288 289 290 291 291 292 292 293 293 292 292 291 291 290 288 287 285 283 281 278 275 273 270 268 266
259 260 262 264 266 267 269 271 273 275 277 278 279 281 282 283 285 286 287 288 289 291 291 292 293 293 293 293 293 293 292 291 290 289 288 286 284 281 278 275 272 269 266 264
259 261 262 263 265 267 269 271 273 275 276 277 278 280 282 283 285 286 287 288 290 291 292 293 293 294 294 294 294 293 293 292 291 290 289 287 285 282 279 276 272 269 266 263
259 261 262 264 266 268 270 272 273 274 275 277 278 280 282 283 285 287 288 289 291 292 293 293 294 294 295 295 295 295 294 293 292 291 290 288 286 284 281 277 273 270 266 263
259 260 262 264 266 268 270 271 273 274 276 278 279 281 283 285 287 288 289 291 292 293 294 295 296 296 296 297 297 297 296 295 294 293 291 290 288 286 283 280 275 271 267 264
Height
5876 5878 5879 5881 5882 5883 5883 5884 5884 5884 5883 5882 5880 5878 5876 5874 5871 5868 5864 5861 5857 5852 5848 5843 5838 5833 5828 5822 5816 5810 5804 5797 5791 5784 5778 5771 5765 5759 5753 5747 5742 5737 5733 5729
5874 5875 5877 5878 5879 5880 5881 5881 5882 5882 5881 5880 5879 5877 5875 5873 5870 5867 5864 5860 5856 5852 5848 5844 5839 5834 5829 5823 5818 5812 5806 5799 5793 5787 5780 5774 5767 5761 5756 5750 5745 5740 5735 5731
5872 5873 5875 5877 5878 5878 5879 5879 5880 5880 5880 5878 5877 5875 5874 5871 5869 5866 5863 5860 5856 5852 5848 5844 5839 5834 5829 5824 5819 5813 5808 5802 5795 5789 5783 5777 5770 5764 5759 5753 5747 5742 5738 5734
5870 5872 5873 5876 5875 5876 5876 5877 5877 5877 5877 5876 5875 5874 5872 5870 5867 5865 5862 5859 5855 5851 5848 5843 5839 5835 5830 5825 5820 5815 5809 5804 5798 5792 5786 5780 5774 5768 5762 5757 5751 5746 5741 5737
5868 5869 5870 5872 5872 5873 5874 5874 5875 5874 5874 5873 5872 5871 5870 5868 5865 5863 5860 5857 5854 5850 5847 5843 5839 5834 5830 5825 5821 5816 5810 5805 5800 5794 5788 5783 5777 5771 5766 5760 5755 5749 5745 5741
5865 5866 5868 5870 5870 5870 5872 5872 5872 5871 5871 5870 5870 5869 5868 5865 5863 5861 5858 5855 5852 5849 5845 5842 5838 5834 5830 5825 5821 5816 5811 5806 5801 5796 5791 5785 5780 5775 5769 5764 5759 5754 5749 5744
5862 5863 5865 5867 5867 5868 5870 5870 5869 5868 5868 5867 5866 5866 5865 5862 5860 5858 5856 5853 5850 5847 5844 5840 5837 5833 5829 5825 5821 5816 5812 5807 5802 5797 5793 5788 5783 5778 5772 5767 5762 5757 5753 5748
5859 5861 5864 5863 5863 5865 5865 5865 5865 5864 5864 5864 5863 5862 5860 5859 5857 5855 5852 5850 5847 5844 5841 5838 5835 5831 5827 5823 5820 5815 5811 5807 5803 5798 5794 5789 5784 5780 5775 5770 5765 5761 5756 5752
5857 5859 5859 5859 5859 5860 5860 5860 5860 5860 5860 5859 5859 5857 5856 5855 5853 5851 5849 5846 5844 5841 5838 5835 5832 5829 5825 5822 5818 5814 5810 5806 5802 5798 5794 5789 5785 5781 5776 5772 5768 5763 5759 5755
5852 5853 5854 5854 5855 5855 5856 5856 5856 5856 5855 5855 5854 5853 5851 5850 5848 5846 5844 5842 5840 5837 5835 5832 5829 5825 5822 5819 5816 5812 5808 5805 5801 5797 5793 5789 5785 5781 5777 5773 5769 5765 5761 5757
5847 5848 5849 5849 5850 5850 5850 5850 5850 5850 5850 5849 5848 5847 5846 5845 5843 5842 5840 5837 5835 5833 5830 5827 5824 5821 5819 5816 5812 5809 5805 5802 5799 5795 5792 5788 5785 5781 5777 5774 5770 5766 5762 5759
5842 5843 5843 5844 5844 5844 5844 5844 5844 5844 5844 5843 5842 5841 5840 5839 5837 5836 5834 5832 5830 5827 5825 5822 5819 5817 5814 5811 5808 5805 5802 5798 5795 5792 5789 5786 5783 5780 5776 5773 5769 5766 5763 5759
5835 5836 5836 5837 5837 5838 5838 5838 5838 5837 5837 5836 5835 5835 5833 5832 5831 5829 5827 5825 5823 5821 5819 5816 5814 5811 5808 5806 5803 5800 5797 5794 5791 5788 5785 5782 5779 5777 5774 5771 5768 5765 5762 5759
5828 5828 5829 5830 5830 5830 5830 5830 5830 5830 5829 5829 5828 5827 5826 5825 5823 5822 5820 5818 5816 5814 5812 5810 5807 5804 5802 5799 5797 5794 5791 5788 5786 5783 5780 5778 5775 5772 5770 5767 5765 5762 5760 5757
5820 5821 5822 5822 5822 5823 5823 5823 5823 5822 5822 5821 5820 5819 5818 5817 5815 5814 5812 5810 5808 5806 5804 5802 5799 5797 5794 5792 5789 5787 5784 5782 5779 5777 5774 5772 5769 5767 5765 5762 5760 5758 5756 5754
5811 5812 5813 5813 5814 5814 5814 5814 5814 5814 5813 5813 5812 5811 5809 5808 5806 5805 5803 5801 5799 5797 5795 5793 5790 5788 5785 5783 5781 5778 5776 5774 5771 5769 5767 5764 5762 5760 5758 5756 5754 5752 5751 5749
5802 5803 5804 5804 5805 5805 5805 5805 5805 5804 5804 5803 5802 5801 5800 5798 5797 5795 5793 5791 5789 5787 5785 5783 5780 5778 5776 5773 5771 5769 5767 5764 5762 5760 5758 5756 5754 5752 5750 5748 5747 5745 5744 5742
5792 5793 5794 5795 5795 5795 5795 5795 5794 5794 5793 5793 5792 5791 5789 5788 5786 5784 5782 5780 5778 5776 5774 5771 5769 5767 5765 5762 5760 5758 5756 5754 5752 5750 5748 5746 5744 5742 5741 5739 5738 5736 5735 5734
5781 5782 5783 5784 5784 5784 5784 5784 5783 5783 5782 5782 5781 5780 5779 5777 5775 5773 5771 5769 5767 5764 5762 5760 5757 5755 5753 5751 5749 5747 5745 5742 5740 5738 5736 5734 5733 5731 5729 5728 5727 5726 5725 5724
5770 5771 5771 5772 5772 5772 5772 5772 5772 5771 5771 5770 5769 5768 5767 5765 5763 5761 5759 5757 5755 5753 5751 5748 5746 5743 5741 5739 5736 5734 5732 5730 5728 5725 5724 5722 5720 5718 5717 5715 5714 5713 5712 5712
5757 5758 5759 5759 5760 5760 5760 5760 5759 5759 5758 5757 5756 5755 5754 5752 5750 5749 5746 5744 5742 5740 5738 5735 5733 5731 5728 5726 5723 5721 5718 5716 5713 5711 5709 5707 5705 5704 5702 5701 5700 5699 5698 5698
5744 5745 5746 5747 5747 5747 5747 5747 5746 5746 5745 5744 5743 5742 5740 5739 5737 5735 5733 5731 5728 5726 5724 5721 5719 5716 5714 5711 5708 5706 5703 5700 5698 5695 5693 5691 5689 5687 5685 5684 5683 5682 5682 5682
5731 5732 5733 5733 5734 5734 5733 5733 5733 5732 5732 5731 5729 5728 5726 5725 5723 5721 5719 5717 5714 5712 5709 5706 5704 5701 5698 5695 5692 5689 5686 5683 5680 5677 5675 5672 5670 5668 5666 5665 5664 5663 5663 5664
5717 5718 5719 5719 5720 5720 5720 5719 5719 5718 5718 5716 5715 5714 5712 5711 5709 5707 5704 5702 5699 5697 5694 5691 5688 5685 5682 5678 5675 5671 5668 5665 5661 5658 5655 5652 5649 5647 5645 5644 5643 5642 5642 5643
5703 5704 5704 5705 5705 5706 5706 5705 5705 5704 5703 5702 5701 5700 5698 5696 5694 5692 5690 5687 5684 5681 5678 5675 5671 5668 5664 5660 5656 5653 5649 5645 5641 5637 5634 5631 5628 5625 5623 5621 5620 5619 5619 5620
5689 5690 5691 5691 5692 5692 5692 5691 5691 5690 5689 5688 5687 5686 5684 5682 5680 5677 5675 5672 5669 5665 5662 5658 5654 5650 5646 5642 5638 5633 5629 5624 5620 5616 5612 5608 5605 5602 5600 5597 5596 5595 5595 5595
5675 5676 5677 5677 5678 5678 5678 5677 5677 5676 5675 5674 5673 5671 5670 5668 5665 5662 5660 5656 5653 5649 5645 5641 5637 5633 5628 5623 5619 5614 5609 5603 5599 5594 5590 5586 5582 5579 5576 5574 5572 5570 5570 5571